Location: Bear Trap Landing
(45.2437°N, 67.7928°W)
Time: 01:19:09
(UTC+00:00)

X-37B - Pass Details

Date: 14 March 2021
Orbit: 380 x 394 km, 45.0° (Epoch: 07 April)

Event Time Altitude Azimuth Distance (km) Brightness Sun altitude
Rises 01:06:27 0° 262° (W) 2,273 5.3 -26.7°
Reaches altitude 10° 01:08:31 10° 262° (W) 1,421 4.1 -27.0°
Enters shadow 01:09:12 15° 261° (W) 1,147 3.5 -27.1°
